Weather History for KASH - January, 2014

Change the Weather History Date:

Tuesday, January 14, 2014

  Actual Average Record
Temperature  
Mean Temperature 42 °F -  
Max Temperature 46 °F 32 °F 60 °F (2005)
Min Temperature 39 °F 11 °F -24 °F (1957)
Degree Days  
Heating Degree Days 22    
Moisture  
Dew Point 41 °F    
Average Humidity 96    
Maximum Humidity 100    
Minimum Humidity 74    
Precipitation  
Precipitation 0.60 in - - ()
Sea Level Pressure  
Sea Level Pressure 30.06 in    
Wind  
Wind Speed 1 mph (West)    
Max Wind Speed 8 mph    
Max Gust Speed -    
Visibility 4 miles    
Events Fog , Rain    
Averages and records for this station are not official NWS values.
T = Trace of Precipitation, MM = Missing Value Source: NWS Daily Summary

Daily Weather History Graph

Daily Weather History Graph

Search for Another Location

Airport or City:

Trip Planner

Search our weather history database for the weather conditions in past years. The results will help you decide how hot, cold, wet, or windy it might be!

Date:

Astronomy

Jan. 14, 2014 Rise Set
Actual Time 7:14 AM EST 4:36 PM EST
Civil Twilight 6:42 AM EST 5:07 PM EST
Nautical Twilight 6:07 AM EST 5:42 PM EST
Astronomical Twilight 5:34 AM EST 6:16 PM EST
Moon 3:39 PM EST (1/14) 5:46 AM EST (1/14)
Length of Visible Light 10h 24m
Length of Day
9h 22m
Waxing Gibbous, 98% of the Moon is Illuminated
Jan 14
Waxing Gibbous
Jan 15
Full
Jan 24
Last Quarter
Jan 30
New
Feb 6
First Quarter

Hourly Weather History & Observations

Time (EST) Temp. Windchill Dew Point Humidity Pressure Visibility Wind Dir Wind Speed Gust Speed Precip Events Conditions
12:51 AM 45.9 °F - 37.9 °F 74% 30.61 in 10.0 mi Calm Calm - N/A   Clear
1:51 AM 45.9 °F - 37.9 °F 74% 30.60 in 10.0 mi Calm Calm - N/A   Clear
2:51 AM 45.0 °F - 38.8 °F 79% 30.58 in 10.0 mi Calm Calm - N/A   Clear
3:51 AM 45.0 °F - 39.9 °F 82% 30.58 in 10.0 mi Calm Calm - N/A   Clear
4:51 AM 45.0 °F - 41.0 °F 86% 30.54 in 10.0 mi Calm Calm - N/A   Clear
5:51 AM 45.0 °F - 41.0 °F 86% 30.55 in 10.0 mi Calm Calm - N/A   Clear
6:51 AM 39.9 °F - 37.9 °F 93% 30.56 in 10.0 mi Calm Calm - N/A   Partly Cloudy
7:51 AM 45.9 °F - 41.0 °F 83% 30.55 in 4.0 mi Calm Calm - N/A   Haze
7:53 AM 46.4 °F 45.2 °F 41.0 °F 81% 29.81 in 10.0 mi South 3.5 mph - N/A   Mostly Cloudy
8:51 AM 45.9 °F - 41.0 °F 83% 30.56 in 10.0 mi Calm Calm - N/A   Mostly Cloudy
9:51 AM 46.9 °F - 41.9 °F 83% 30.55 in 10.0 mi Variable 4.6 mph - 0.00 in Rain Light Rain
10:51 AM 45.9 °F 43.6 °F 43.9 °F 93% 30.54 in 5.0 mi Variable 4.6 mph - 0.01 in Rain Light Rain
11:51 AM 45.9 °F - 43.9 °F 93% 30.51 in 10.0 mi Calm Calm - 0.01 in   Mostly Cloudy
12:51 PM 45.0 °F - 45.0 °F 100% 30.48 in 4.0 mi Calm Calm - 0.03 in Rain Light Rain
1:51 PM 41.9 °F - 41.9 °F 100% 30.47 in 4.0 mi Calm Calm - 0.05 in Fog Shallow Fog
2:51 PM 43.0 °F - 43.0 °F 100% 30.44 in 2.5 mi Calm Calm - 0.03 in Fog Shallow Fog
2:58 PM 42.8 °F - 42.8 °F 100% 29.70 in 2.5 mi Calm Calm - 0.01 in Fog Shallow Fog
3:16 PM 42.8 °F 41.1 °F 42.8 °F 100% 29.69 in 0.2 mi Variable 3.5 mph - 0.02 in Fog , Rain Light Rain
3:51 PM 41.0 °F - 41.0 °F 100% 30.42 in 0.2 mi Calm Calm - 0.05 in Fog , Rain Light Rain
4:40 PM 42.8 °F - 42.8 °F 100% 29.68 in 0.2 mi Calm Calm - 0.05 in Fog , Rain Light Rain
4:51 PM 41.9 °F - 41.9 °F 100% 30.42 in 0.2 mi Calm Calm - 0.08 in Fog , Rain Rain
5:51 PM 43.0 °F 39.5 °F 43.0 °F 100% 30.40 in 1.5 mi NW 5.8 mph - 0.10 in Rain Rain
5:55 PM 42.8 °F 40.1 °F 42.8 °F 100% 29.67 in 1.0 mi WNW 4.6 mph - 0.01 in Rain Rain
6:07 PM 42.8 °F - 42.8 °F 100% 29.66 in 1.5 mi Calm Calm - 0.04 in Rain Rain
6:10 PM 41.0 °F - 41.0 °F 100% 29.65 in 1.0 mi Calm Calm - 0.05 in Rain Rain
6:16 PM 41.0 °F - 41.0 °F 100% 29.65 in 0.5 mi Calm Calm - 0.05 in Fog , Rain Light Rain
6:29 PM 42.8 °F - 42.8 °F 100% 29.65 in 1.0 mi Calm Calm - 0.05 in Rain Light Rain
6:32 PM 42.8 °F - 42.8 °F 100% 29.65 in 2.0 mi Calm Calm - 0.05 in Rain Light Rain
6:40 PM 42.8 °F - 42.8 °F 100% 29.65 in 3.0 mi Calm Calm - 0.05 in Rain Light Rain
6:51 PM 41.0 °F - 41.0 °F 100% 30.38 in 2.0 mi Calm Calm - 0.07 in Rain Light Rain
6:54 PM 39.2 °F - 39.2 °F 100% 29.64 in 1.2 mi Calm Calm - 0.00 in Rain Light Rain
7:04 PM 41.0 °F - 41.0 °F 100% 29.66 in 1.8 mi Calm Calm - 0.01 in Rain Light Rain
7:07 PM 42.8 °F - 42.8 °F 100% 29.66 in 3.0 mi Calm Calm - 0.01 in Rain Light Rain
7:26 PM 39.2 °F - 39.2 °F 100% 29.67 in 1.5 mi Calm Calm - 0.05 in Rain Rain
7:28 PM 39.2 °F - 39.2 °F 100% 29.66 in 1.0 mi Calm Calm - 0.06 in Rain Rain
7:35 PM 39.2 °F - 39.2 °F 100% 29.66 in 0.8 mi Calm Calm - 0.07 in Rain Rain
7:38 PM 39.2 °F - 39.2 °F 100% 29.66 in 1.2 mi Calm Calm - 0.08 in Rain Rain
7:43 PM 39.2 °F - 39.2 °F 100% 29.66 in 2.0 mi Calm Calm - 0.09 in Rain Rain
7:51 PM 41.0 °F - 41.0 °F 100% 30.40 in 3.0 mi Calm Calm - 0.12 in Rain Rain
8:51 PM 39.9 °F - 39.9 °F 100% 30.39 in 5.0 mi Calm Calm - 0.03 in Rain Light Rain
9:12 PM 39.2 °F - 39.2 °F 100% 29.62 in 1.5 mi Calm Calm - 0.00 in   Clear
9:14 PM 39.2 °F - 39.2 °F 100% 29.62 in 0.8 mi Calm Calm - 0.00 in   Mostly Cloudy
9:22 PM 39.2 °F - 39.2 °F 100% 29.63 in 0.5 mi Calm Calm - 0.00 in Fog Fog
9:31 PM 39.2 °F - 39.2 °F 100% 29.65 in 1.0 mi Calm Calm - 0.00 in   Mostly Cloudy
9:33 PM 39.2 °F - 39.2 °F 100% 29.65 in 1.8 mi Calm Calm - 0.00 in   Mostly Cloudy
9:35 PM 39.2 °F - 39.2 °F 100% 29.65 in 4.0 mi Calm Calm - 0.00 in   Scattered Clouds
9:43 PM 41.0 °F 36.4 °F 41.0 °F 100% 29.67 in 10.0 mi West 6.9 mph - 0.00 in   Mostly Cloudy
9:51 PM 41.0 °F 35.8 °F 41.0 °F 100% 30.43 in 10.0 mi West 8.1 mph - 0.00 in   Mostly Cloudy
10:51 PM 41.0 °F 36.4 °F 41.0 °F 100% 30.47 in 10.0 mi WNW 6.9 mph - 0.01 in Rain Light Rain
11:51 PM 39.9 °F - 38.8 °F 96% 30.49 in 10.0 mi Calm Calm - 0.01 in   Clear